SCP
8 10 9 7 6 6 5 4 3 3 2 2 3 4 5 5 4 3 2 2 2 1 1 1 1 2 2 2 2 2 2 2 2 2 1 0 0 0 0 0 0 0 0
9 9 8 7 7 7 6 4 3 3 3 2 3 3 4 4 4 3 2 2 2 2 1 1 1 1 1 2 2 2 2 2 2 1 1 0 0 0 0 0 0 0 0
9 8 6 6 6 6 5 4 3 3 3 2 2 2 3 4 4 3 3 2 3 2 2 1 1 1 1 1 1 1 1 1 1 1 0 0 0 0 0 0 0 0 0
7 7 6 5 5 5 5 4 4 3 2 2 1 2 3 3 3 3 3 3 3 3 2 2 1 1 1 1 1 1 1 1 1 1 0 0 0 0 0 0 0 0 0
6 6 6 7 7 6 5 4 3 2 2 1 1 2 2 2 2 2 2 2 2 2 2 2 1 1 1 0 0 0 1 1 1 1 0 0 0 0 0 0 0 0 0
7 8 9 10 9 7 5 4 3 2 2 2 2 1 1 1 2 2 2 1 2 2 2 2 1 1 1 0 0 0 0 1 1 1 0 0 0 0 0 0 0 0 0
7 9 11 12 10 8 5 4 3 3 3 2 1 1 0 1 1 2 1 1 1 1 1 1 1 1 1 0 0 0 0 0 0 0 0 0 0 0 0 0 0 0 0
6 7 9 10 9 7 5 4 4 4 3 2 1 0 0 0 1 1 1 1 1 1 1 1 1 1 0 0 0 0 0 0 0 0 0 0 0 0 0 0 0 0 0
5 5 6 7 7 6 5 5 4 3 2 1 1 0 0 0 1 1 1 1 1 0 0 0 0 0 0 0 0 0 0 0 0 0 0 0 0 0 0 0 0 0 0
4 4 4 5 5 5 5 4 3 2 1 1 1 0 0 0 0 1 1 1 0 0 0 0 0 0 0 0 0 0 0 0 0 0 0 0 0 0 0 0 0 0 0
3 3 3 3 4 4 4 3 2 1 1 1 1 0 0 0 0 0 0 0 0 0 0 0 0 0 0 0 0 0 0 0 0 0 0 0 0 0 0 0 0 0 0
2 2 3 3 3 3 3 2 2 1 1 1 1 0 0 0 0 0 0 0 0 0 0 0 0 0 0 0 0 0 0 0 0 0 0 0 0 0 0 0 0 0 0
2 2 2 2 3 3 3 2 2 1 1 1 1 1 0 0 0 0 0 0 0 0 0 0 0 0 0 0 0 0 0 0 0 0 0 0 0 0 0 0 0 0 0
1 1 2 2 3 3 3 2 2 1 1 1 1 1 1 0 0 0 0 0 0 0 0 0 0 0 0 0 0 0 0 0 0 0 0 0 0 0 0 0 0 0 0
1 1 2 2 3 3 3 2 2 1 1 1 1 1 1 0 0 0 0 0 0 0 0 0 0 0 0 0 0 0 0 0 0 0 0 0 0 0 0 0 0 0 0
1 1 2 2 2 2 2 2 2 1 0 0 0 1 1 1 0 0 0 0 0 0 0 0 0 0 0 0 0 0 0 0 0 0 0 0 0 0 0 0 0 0 0
1 1 2 2 2 2 2 2 1 1 0 0 0 0 1 1 1 0 0 0 0 0 0 0 0 0 0 0 0 0 0 0 0 0 0 0 0 0 0 0 0 0 0
1 1 2 2 2 2 2 1 1 0 0 0 0 0 0 0 0 0 0 0 0 0 0 0 0 0 0 0 0 0 0 0 0 0 0 0 0 0 0 0 0 0 0
1 1 2 2 2 2 2 1 1 0 0 0 0 0 0 0 0 0 0 0 0 0 0 0 0 0 0 0 0 0 0 0 0 0 0 0 0 0 0 0 0 0 0
1 1 1 2 2 2 1 1 0 0 0 0 0 0 0 0 0 0 0 0 0 0 0 0 0 0 0 0 0 0 0 0 0 0 0 0 0 0 0 0 0 0 0
1 1 1 1 2 1 1 1 0 0 0 0 0 0 0 0 0 0 0 0 0 0 0 0 0 0 0 0 0 0 0 0 0 0 0 0 0 0 0 0 0 0 0
1 1 1 1 1 1 1 0 0 0 0 0 0 0 0 0 0 0 1 1 1 1 1 0 0 0 0 0 0 0 0 0 0 0 0 0 0 0 0 0 0 0 0
1 1 1 1 1 1 0 0 0 0 0 0 0 0 1 1 1 1 1 1 1 1 1 1 0 0 0 0 0 0 0 0 0 0 0 0 0 0 0 0 0 0 0
1 1 1 1 1 1 0 0 0 0 0 0 0 0 1 1 1 1 1 1 1 1 1 1 0 0 0 0 0 0 0 0 0 0 0 0 0 0 0 0 0 0 0
0 0 1 0 0 1 0 0 0 0 0 1 1 1 1 1 1 1 1 1 1 1 1 0 0 0 0 0 0 0 0 0 0 0 0 0 0 0 0 0 0 0 0
0 0 0 0 0 0 0 1 1 1 1 1 1 1 1 1 1 1 1 1 1 1 0 0 0 0 0 0 0 0 0 0 0 0 0 0 0 0 0 0 0 0 0
Wind_Speed
7 7 7 7 6 5 5 4 4 3 2 1 1 1 1 1 0 1 1 1 1 1 1 1 0 1 1 1 1 0 1 1 0 1 2 3 2 1 2 2 2 2 3
6 6 7 6 6 5 4 4 4 3 2 2 1 2 2 1 1 1 1 1 1 1 1 1 1 0 0 0 0 0 0 1 0 1 1 2 3 3 2 2 2 2 2
9 8 7 6 6 6 6 4 4 3 2 2 1 1 1 1 1 0 1 1 1 1 1 1 1 1 1 1 1 1 2 1 1 1 2 1 2 3 3 2 2 2 1
8 7 7 6 6 6 5 5 4 3 2 3 3 3 2 1 2 1 1 1 1 1 1 1 1 1 1 1 2 1 2 2 1 1 1 2 3 2 2 3 2 2 2
9 8 7 7 6 5 5 4 3 3 2 3 3 3 2 1 1 1 0 1 1 0 0 0 0 1 1 1 1 1 1 2 2 1 1 1 0 1 2 2 3 2 2
8 7 7 6 4 4 4 4 3 2 2 2 3 3 3 2 2 1 0 0 1 1 1 1 0 1 1 1 2 1 1 1 2 2 2 1 1 1 1 2 2 2 3
8 7 7 6 6 6 6 5 5 3 2 2 3 3 3 3 3 2 2 1 0 1 2 1 1 1 1 1 1 1 1 1 1 2 2 2 2 2 2 2 2 2 2
8 8 9 8 8 7 6 5 5 4 3 3 3 3 3 2 2 2 2 2 2 2 2 1 1 1 1 0 0 0 1 1 1 1 2 1 2 2 2 2 2 1 2
8 8 8 8 7 6 6 6 6 4 4 4 3 3 3 3 2 2 1 1 1 2 1 0 0 0 0 0 0 0 1 1 1 1 1 1 1 1 1 2 2 2 2
6 6 7 7 6 6 5 5 5 5 4 4 3 3 3 3 3 2 1 1 1 0 1 1 0 0 0 0 0 1 1 0 1 1 1 1 1 1 1 1 1 2 3
6 5 5 5 5 5 5 5 5 4 3 3 3 3 2 3 2 2 2 1 1 1 1 1 0 0 0 0 0 1 0 0 1 1 0 1 1 1 1 0 0 1 1
7 6 6 5 5 5 5 5 5 5 4 4 3 3 2 3 2 1 1 1 1 1 1 0 1 1 0 0 0 1 1 0 1 1 1 2 1 1 1 0 0 1 1
5 5 5 5 5 5 4 4 4 5 4 4 4 3 3 3 2 1 1 1 1 1 1 1 1 1 1 1 0 0 1 1 1 1 1 1 1 1 1 1 1 1 1
5 5 4 5 5 5 4 4 4 4 4 4 4 4 3 3 3 2 1 1 1 1 0 0 0 0 0 1 1 1 1 1 1 1 1 1 1 2 2 1 1 1 1
5 5 5 4 5 4 4 4 4 3 4 4 4 4 3 3 3 2 2 1 1 1 0 1 1 1 0 1 1 1 1 1 1 2 1 1 1 2 1 1 1 2 1
5 4 5 5 5 5 4 4 3 3 4 4 4 3 3 3 2 2 2 1 0 0 0 0 1 1 1 1 1 0 0 0 1 2 2 2 2 3 2 1 1 2 3
5 5 5 5 5 5 5 4 4 4 4 4 3 3 3 3 2 2 2 1 1 0 0 0 1 1 1 1 1 1 0 0 1 1 2 2 2 3 2 2 2 1 1
5 5 4 4 4 4 4 4 4 5 4 3 3 3 3 3 2 2 2 1 1 1 1 0 0 0 1 1 1 1 1 1 1 1 1 1 2 2 2 1 1 2 2
5 5 4 4 4 4 4 4 3 4 4 3 3 3 3 3 2 2 2 2 1 1 1 1 1 1 1 1 1 1 1 1 2 2 2 1 1 3 2 1 1 2 3
3 4 4 4 4 4 4 5 4 4 4 4 3 3 3 3 3 2 2 1 1 1 1 1 1 2 2 2 2 1 0 1 2 2 2 2 1 2 1 1 1 1 2
3 4 5 4 4 4 5 4 3 4 4 4 3 3 3 3 2 2 1 1 1 1 1 1 1 2 2 2 2 1 1 1 1 2 2 3 3 2 1 1 2 3 2
3 4 4 3 3 3 4 4 4 4 3 3 3 3 2 2 2 2 1 1 1 1 1 0 1 2 2 2 3 2 2 1 1 2 2 3 4 4 3 1 1 0 0
3 2 4 3 2 3 4 5 4 3 3 3 3 3 2 2 2 2 2 1 1 1 1 1 2 3 2 2 3 2 2 2 1 2 3 4 4 3 2 2 1 1 1
2 1 3 3 3 3 4 5 4 4 4 4 4 3 3 2 1 1 2 2 2 2 2 1 2 2 2 2 2 2 2 2 2 2 3 3 3 2 2 2 1 0 1
1 2 3 3 4 3 4 4 4 4 4 4 4 4 3 3 2 2 2 3 4 5 5 3 3 2 3 4 4 2 2 2 1 1 1 1 2 2 2 1 1 1 0
1 1 2 3 3 4 4 4 4 4 4 4 4 4 3 3 3 2 2 3 3 5 6 6 4 4 5 4 3 3 3 2 1 2 0 1 1 1 2 2 2 1 1
Wind_Direction
174 158 155 151 146 145 142 143 136 141 132 123 133 142 168 165 150 194 181 178 170 151 134 124 83 80 131 213 222 202 280 292 326 29 332 320 311 279 251 237 226 222 226
159 157 158 154 150 149 153 151 149 152 154 161 169 171 169 177 180 210 219 218 190 181 159 145 148 150 164 280 225 167 197 281 119 127 40 333 335 320 283 258 228 229 228
163 163 156 155 151 154 160 162 164 160 166 149 113 95 74 50 41 346 286 278 221 171 160 164 169 185 174 214 231 198 171 240 278 165 152 169 248 295 308 282 262 239 228
159 163 160 162 167 171 162 162 163 165 172 153 143 151 156 174 218 214 244 295 297 165 158 153 181 196 192 212 238 208 192 180 235 284 207 195 190 203 291 312 303 268 239
168 168 167 167 167 165 161 162 156 164 171 166 161 157 160 183 198 176 163 330 337 314 223 177 191 205 212 225 241 239 207 186 193 212 236 280 281 194 195 276 306 316 279
173 171 163 154 154 158 160 157 157 176 179 163 158 155 161 164 143 143 167 318 329 322 314 281 244 220 219 231 237 228 212 203 200 208 201 191 196 232 203 231 267 284 289
173 173 162 162 170 170 168 167 165 175 178 164 165 163 169 168 170 185 189 201 265 273 271 278 247 231 228 223 217 231 248 214 201 215 218 205 210 205 190 204 252 275 289
175 175 173 173 175 173 171 170 170 167 168 167 174 167 162 164 174 191 192 197 214 233 243 242 233 232 235 242 161 195 239 218 218 227 223 217 232 208 196 189 189 274 303
173 176 173 174 174 174 175 173 169 163 173 176 173 171 172 164 170 186 185 200 219 226 221 208 223 289 13 84 151 216 253 241 234 239 242 246 254 234 224 199 184 183 227
170 170 164 168 172 175 174 169 168 173 178 175 174 169 176 173 175 168 175 185 211 162 115 96 117 340 344 347 139 231 249 227 256 234 232 260 261 276 251 221 209 189 187
162 165 165 166 163 160 166 169 169 168 174 176 169 162 170 166 164 170 190 177 150 127 139 164 77 41 334 288 164 259 266 210 289 294 271 284 271 280 280 277 215 215 169
159 160 157 154 153 164 171 170 170 174 182 178 170 168 160 146 144 163 180 141 131 145 153 101 42 7 360 336 251 242 304 278 299 301 335 307 313 316 290 272 242 227 200
144 146 152 159 162 168 168 168 173 178 181 173 166 160 153 145 150 155 124 111 106 76 43 53 16 331 349 356 327 268 287 273 250 230 235 289 329 313 293 274 245 239 228
141 140 146 158 166 171 168 165 170 172 172 169 166 168 174 168 164 148 124 124 128 110 52 11 315 277 332 355 345 37 19 353 327 290 256 255 258 264 260 251 232 194 152
140 150 155 153 156 158 159 162 168 164 160 160 166 179 176 160 149 141 144 140 134 146 160 35 2 346 345 359 44 48 63 15 338 330 312 310 331 319 269 248 217 184 177
155 159 158 157 158 160 161 163 167 159 148 155 173 174 160 154 156 161 154 133 126 119 100 39 356 354 347 27 40 103 108 321 329 320 316 320 345 343 332 322 233 182 183
169 164 169 173 174 171 167 165 168 149 141 149 161 163 162 165 175 170 147 157 190 172 352 321 19 15 3 15 350 321 154 323 298 297 313 327 342 337 333 338 343 320 239
170 173 174 176 175 166 156 147 142 147 148 153 155 152 160 173 180 165 172 198 190 176 203 296 9 95 351 4 350 348 23 345 304 287 285 284 313 326 338 21 20 351 318
174 178 174 168 162 155 147 133 132 147 151 164 170 175 169 170 173 184 202 209 181 180 189 173 147 145 294 308 318 360 1 345 317 301 292 274 280 306 324 52 26 333 319
146 151 144 136 139 156 143 135 147 152 171 180 182 177 164 162 174 189 204 205 180 201 190 173 186 188 236 269 281 292 50 340 320 321 318 301 302 318 316 157 164 266 291
132 132 135 142 155 155 140 145 159 180 189 176 165 165 169 170 171 175 185 183 177 173 178 201 235 240 244 262 278 268 180 241 291 307 307 304 311 321 336 174 186 224 236
126 131 130 144 163 155 146 162 190 202 178 156 155 166 178 182 160 155 182 177 164 171 211 231 288 286 277 268 275 270 245 236 223 269 282 296 311 310 321 320 280 229 94
137 141 149 157 178 178 165 179 209 194 171 164 174 178 177 184 172 168 188 202 182 183 216 218 258 282 292 296 290 275 268 266 233 260 282 303 313 314 314 319 334 103 118
147 142 150 166 196 207 196 199 204 189 179 184 189 182 174 190 201 189 193 193 198 198 201 218 251 274 281 286 297 294 285 293 290 296 312 324 343 351 324 324 324 250 179
169 173 182 197 218 218 214 213 201 180 184 191 192 190 189 192 207 219 219 219 218 206 198 210 210 210 252 258 239 222 248 253 247 302 354 6 357 341 327 317 298 307 356
204 205 214 219 224 215 220 219 203 185 181 191 197 196 197 203 208 216 266 276 246 237 222 216 209 228 238 252 246 252 272 274 180 110 27 299 279 266 266 273 281 268 247